www.pogodaiklimat.ru
Время
(UTC), дата
13 16.01
14 16.01
15 16.01
16 16.01
17 16.01
18 16.01
19 16.01
20 16.01
21 16.01
22 16.01
23 16.01
00 17.01
01 17.01
02 17.01
03 17.01
04 17.01
05 17.01
06 17.01
07 17.01
08 17.01
09 17.01
10 17.01
11 17.01
12 17.01
13 17.01
14 17.01
15 17.01
16 17.01
17 17.01
18 17.01
19 17.01
20 17.01
21 17.01
22 17.01
23 17.01
00 18.01
01 18.01
02 18.01
03 18.01
04 18.01
05 18.01
06 18.01
07 18.01
08 18.01
09 18.01
10 18.01
11 18.01
12 18.01
13 18.01
14 18.01
15 18.01
16 18.01
17 18.01
18 18.01
19 18.01
20 18.01
21 18.01
22 18.01
23 18.01
00 19.01
01 19.01
02 19.01
03 19.01
04 19.01
05 19.01
06 19.01
07 19.01
08 19.01
09 19.01
10 19.01
11 19.01
12 19.01
13 19.01
14 19.01
15 19.01
16 19.01
17 19.01
18 19.01
19 19.01
20 19.01
21 19.01
22 19.01
23 19.01
00 20.01
01 20.01
02 20.01
03 20.01
04 20.01
05 20.01
06 20.01
07 20.01
08 20.01
09 20.01
10 20.01
11 20.01
12 20.01
13 20.01
14 20.01
15 20.01
16 20.01
17 20.01
18 20.01
19 20.01
20 20.01
21 20.01
22 20.01
23 20.01
00 21.01
01 21.01
02 21.01
03 21.01
04 21.01
05 21.01
06 21.01
07 21.01
08 21.01
09 21.01
10 21.01
11 21.01
12 21.01
13 21.01
14 21.01
15 21.01
16 21.01
17 21.01
18 21.01
19 21.01
20 21.01
21 21.01
22 21.01
23 21.01
00 22.01
01 22.01
02 22.01
03 22.01
04 22.01
05 22.01
06 22.01
07 22.01
08 22.01
09 22.01
10 22.01
11 22.01
12 22.01
13 22.01
14 22.01
15 22.01
16 22.01
17 22.01
18 22.01
19 22.01
20 22.01
21 22.01
22 22.01
23 22.01
00 23.01
01 23.01
02 23.01
03 23.01
04 23.01
05 23.01
06 23.01
07 23.01
08 23.01
09 23.01
10 23.01
11 23.01
Ветер
(напр.,м/с)
Видим. Явления Облачность Т
(С)
Тd
(С)
f
(%)
Тe
(С)
Тes
(С)
Комфортность P
(гПа)
Po
(гПа)
Тmin
(С)
Tmax
(С)
R
(мм)
R24
(мм)
S
(см)
ЮЗ 7 8000 м слаб. снег 9/9 300 м
[Sc]
-3.3 -5.6 84 -11 -11 очень
холодно
1018.7 988.0
З 7
{13}
10 км позёмок {снег} 9/9 600 м
[Sc]
-4.0 -6.8 81 -12 -12 прохладно 1018.7 987.9
ЮЗ 7
{13}
8000 м слаб. снег {метель} 10/9 300 м
[Sc]
-4.7 -7.0 84 -13 -13 очень
холодно
1018.5 987.7
ЮЗ 6 6000 м слаб. снег {метель} 10/9 600 м
[Sc]
-5.7 -7.4 88 -14 -14 холодно 1018.8 987.8
ЮЗ 6 4000 м слаб. снег {метель} 10/9 300 м
[Sc]
-5.6 -7.0 90 -14 -14 по сезону 1018.0 987.1
ЮЗ 7
{13}
3500 м снег {метель} 10/9 300 м
[Sc]
-5.8 -6.8 93 -14 -14 очень
холодно
1017.0 986.1 -6.5 -3.1 0.4
ЮЗ 7 6000 м слаб. снег {метель} 10/6 270 м
[Frnb As op]
-5.6 -6.7 92 -14 -14 прохладно 1016.5 985.6
ЮЗ 8 4500 м слаб. снег {метель} 10/6 270 м
[Frnb As op]
-5.4 -6.5 92 -14 -14 по сезону 1015.8 985.0
ЮЗ 9 4500 м слаб. снег {метель} 10/6 270 м
[Frnb As op]
-5.4 -6.6 91 -15 -15 очень
холодно
1015.2 984.4
ЮЗ 6 3500 м снег {метель} 10/5 270 м
[Frnb As op]
-5.3 -6.3 93 -13 -13 по сезону 1014.9 984.1
ЮЗ 6 3500 м снег {метель} 10/5 240 м
[Frnb As op]
-5.2 -6.2 93 -13 -13 по сезону 1014.5 983.7
ЮЗ 8 3000 м слаб. снег {метель} 10/5 180 м
[Frnb As op]
-5.0 -6.1 92 -14 -14 очень
холодно
1013.8 983.1 0.4
СЗ 3 1500 м сильн. снег {метель} 10/6 150 м
[Frnb As op]
-4.8 -5.5 95 -10 -10 по сезону 1014.3 983.6
СЗ 4 2500 м снег {метель} 10/6 150 м
[Frnb As op]
-5.8 -6.9 92 -12 -12 по сезону 1014.9 984.0
С 4 20 км в посл. час снег {метель} 10/9 400 м
[Sc]
-7.6 -9.4 87 -14 -14 холодно 1015.7 984.6
СЗ 4 30 км 4/3 600 м
[Sc Ac trans]
-10.1 -12.3 84 -17 -17 холодно 1016.7 985.3
С 2 30 км 1/0
[Ac trans]
-11.4 -13.1 87 -16 -16 по сезону 1017.5 985.9
В 2 20 км {снег, метель} 1/0
[Ac trans]
-13.1 -14.7 88 -18 -18 очень
холодно
1018.5 986.7 -13.1 -4.7 2 2.8 30
СЗ 1 10 км 9/9 480 м
[Sc]
-13.7 -15.1 89 -16 -16 прохладно 1019.4 987.5
штиль 0 8000 м слаб. снег 9/9 240 м
[Sc]
-12.2 -13.5 90 -12 -12 по сезону 1019.9 988.1
ЮЗ 1 8000 м слаб. снег 8/8 90 м
[Frnb]
-9.9 -11.4 89 -12 -12 холодно 1020.3 988.8
СВ 1 5000 м слаб. снег 9/9 150 м
[Sc]
-8.9 -11.0 85 -11 -11 по сезону 1020.7 989.3
СВ 1 10 км в посл. час снег 5/5 90 м
[Sc Ac trans]
-8.2 -10.6 83 -11 -9 по сезону 1020.9 989.6
штиль 0 10 км {снег} 9/9 300 м
[Sc]
-8.5 -11.3 80 -9 -9 холодно 1021.0 989.6 0.0
З 1 10 км слаб. снег 9/9 600 м
[Sc]
-8.6 -11.6 79 -11 -11 прохладно 1021.3 989.9
З 1 6000 м слаб. снег 10/10 600 м
[Sc]
-9.0 -11.7 81 -11 -11 по сезону 1021.9 990.5
ЮЗ 2 6000 м слаб. снег 10/10 300 м
[Sc]
-9.2 -11.4 84 -14 -14 очень
холодно
1022.3 990.8
З 2 10 км в посл. час снег 10/10 600 м
[Sc]
-9.2 -12.0 80 -14 -14 холодно 1022.8 991.3
В 2 8000 м слаб. снег 10/10 600 м
[Sc]
-10.1 -12.4 83 -15 -15 по сезону 1023.4 991.8
СВ 2 7000 м слаб. снег 10/10 600 м
[Sc]
-10.4 -12.7 83 -15 -15 очень
холодно
1024.2 992.5 -14.2 -7.8 0.0
В 1 6000 м слаб. снег 10/10 600 м
[Sc]
-10.8 -13.4 81 -13 -13 прохладно 1024.0 992.3
СВ 1 6000 м слаб. снег 10/10 600 м
[Sc]
-10.9 -13.1 84 -13 -13 по сезону 1024.4 992.7
штиль 0 7000 м слаб. снег 10/10 600 м
[Sc]
-10.9 -12.9 85 -11 -11 холодно 1024.8 993.0
С 1 7000 м слаб. снег 10/10 300 м
[Sc]
-10.8 -12.8 85 -13 -13 прохладно 1024.9 993.2
З 3 7000 м слаб. снег 10/10 400 м
[Sc]
-10.6 -12.9 83 -17 -17 по сезону 1024.9 993.2
З 4 7000 м слаб. снег 10/10 330 м
[Sc]
-10.8 -13.0 84 -18 -18 очень
холодно
1024.6 992.9 0.0
З 3 6000 м слаб. снег 10/10 270 м
[Frnb]
-10.8 -12.7 86 -17 -17 холодно 1025.1 993.3
З 4 5000 м слаб. снег 10/10 330 м
[Sc]
-10.9 -12.9 85 -18 -18 по сезону 1025.1 993.3
ЮЗ 3 5000 м слаб. снег 10/10 300 м
[Sc]
-11.2 -12.9 87 -17 -17 очень
холодно
1024.8 993.0
З 4 6000 м слаб. снег 10/10 210 м
[Sc]
-11.3 -13.2 86 -18 -18 холодно 1024.8 993.0
З 4 7000 м в посл. час снег 10/10 300 м
[Sc]
-11.4 -13.4 85 -18 -18 по сезону 1024.5 992.7
ЮЗ 2 6000 м слаб. снег 10/10 300 м
[Sc]
-11.5 -13.5 85 -16 -16 очень
холодно
1024.7 992.9 -11.5 -10.4 0.1 0.1 25
ЮЗ 2 6000 м в посл. час снег 9/9 300 м
[Sc]
-12.2 -14.2 85 -17 -17 холодно 1024.9 993.0
ЮЗ 2 3500 м дымка 3/3 300 м
[Sc]
-13.0 -14.6 88 -18 -17 по сезону 1025.3 993.3
ЮЗ 2 4000 м дымка {снег} ясно -12.4 -14.7 83 -17 -15 очень
холодно
1025.5 993.5
ЮЗ 2 5000 м дымка ясно -10.6 -13.4 80 -15 -13 холодно 1024.7 993.0
ЮЗ 2 6000 м дымка ясно -9.6 -13.4 74 -14 -12 по сезону 1024.3 992.7
Ю 3 7000 м дымка {снег} 4/0
[Cs]
-8.5 -12.6 72 -14 -13 очень
холодно
1023.6 992.2 0.0
Ю 3 8000 м дымка 6/0
[Cs]
-7.9 -12.1 72 -14 -13 холодно 1023.4 992.0
ЮЗ 2 8000 м дымка 8/0
[Cs]
-7.5 -11.9 71 -12 -11 по сезону 1023.1 991.8
ЮЗ 2 6000 м дымка 5/0
[Cs]
-9.4 -12.5 78 -14 -14 очень
холодно
1023.3 991.8
ЮЗ 2 4000 м дымка 4/0
[Cs]
-10.9 -13.1 84 -15 -15 холодно 1023.6 991.9
З 1 3500 м дымка 6/0
[Ac As]
-11.3 -13.2 86 -14 -14 по сезону 1023.3 991.5
штиль 0 3100 м дымка 6/0
[Ac As]
-10.6 -12.5 86 -11 -11 холодно 1023.2 991.5 -13.4 -7.5 0.0
штиль 0 3100 м дымка 9/9 1500 м
[Sc]
-9.8 -11.8 85 -10 -10 по сезону 1023.0 991.4
ЮЗ 1 2500 м слаб. снег 9/9 150 м
[Sc]
-9.3 -11.5 84 -12 -12 по сезону 1023.0 991.5
ЮЗ 1 2500 м слаб. снег 9/9 1000 м
[Sc]
-9.2 -11.1 86 -12 -12 холодно 1022.6 991.1
С 1 2200 м слаб. снег 9/9 600 м
[Sc]
-8.6 -10.4 87 -11 -11 по сезону 1022.2 990.8
штиль 0 2500 м слаб. снег 9/9 300 м
[Sc]
-8.0 -9.8 87 -9 -9 по сезону 1021.6 990.3
штиль 0 2400 м слаб. снег 9/9 420 м
[Sc]
-7.8 -9.2 90 -9 -9 прохладно 1021.0 989.7 0.0
штиль 0 1700 м слаб. снег 9/9 600 м
[Sc]
-7.4 -8.6 91 -8 -8 по сезону 1020.4 989.2
штиль 0 1600 м слаб. снег 10/10 300 м
[Sc]
-7.0 -8.1 92 -8 -8 тепло 1019.6 988.5
штиль 0 1100 м снег 10/10 300 м
[Sc]
-6.7 -7.6 93 -8 -8 по сезону 1019.2 988.1
штиль 0 1500 м слаб. снег 10/10 300 м
[Sc]
-6.1 -7.0 93 -7 -7 по сезону 1018.7 987.7
ЮЗ 1 1500 м слаб. снег 10/10 300 м
[Sc]
-5.6 -6.4 94 -8 -8 тепло 1018.5 987.6
ЮЗ 2 1100 м снег 10/10 300 м
[Sc]
-4.0 -4.7 95 -8 -8 по сезону 1018.4 987.6 -10.6 -4.0 3 2.6 25
Ю 3 2500 м слаб. снег 10/10 300 м
[Sc]
-1.5 -1.9 97 -7 -7 по сезону 1018.0 987.5
ЮЗ 6 7000 м в посл. час снег 10/10 240 м
[St]
+0.4 -0.5 94 -6 -6 тепло 1017.8 987.5
ЮЗ 7 10 км {снег} 10/10 270 м
[Sc]
+0.8 -0.5 91 -6 -6 по сезону 1017.6 987.4
ЮЗ 7 7000 м слаб. снег 10/9 150 м
[Frnb]
+0.8 -0.2 93 -6 -6 по сезону 1017.6 987.4
ЮЗ 4 8000 м слаб. снег 10/10 240 м
[Frnb]
+1.0 0.0 93 -4 -4 тепло 1016.9 986.7
ЮЗ 4 15 км в посл. час снег 10/10 240 м
[Sc]
+1.3 0.0 91 -4 -4 по сезону 1016.3 986.2 0.7
ЮЗ 3 20 км 10/10 480 м
[Sc]
+1.9 -0.2 86 -2 -2 по сезону 1015.4 985.4
Ю 3 15 км 9/5 600 м
[Sc Ac As]
+1.9 -0.8 82 -2 -2 тепло 1015.1 985.1
ЮЗ 1 15 км 10/1 600 м
[Sc Ac As]
+1.6 -1.1 82 -0 -0 по сезону 1014.6 984.6
Ю 1 10 км 10/1 1500 м
[Sc Ac As]
+0.7 -1.4 86 -1 -1 тепло 1014.1 984.0
Ю 2 10 км 10/5 1500 м
[Sc Ac As]
+0.8 -1.6 84 -3 -3 тепло 1013.0 982.9
ЮЗ 1 10 км 10/3 1500 м
[Sc Ac As]
+0.2 -2.0 85 -2 -2 по сезону 1012.3 982.2 -4.0 +2.1 0.7
СЗ 1 6000 м дымка 10/6 1000 м
[Sc Ac As]
-0.2 -1.3 92 -2 -2 тепло 1012.4 982.2
Ю 1 5000 м слаб. снег 10/9 600 м
[Sc]
+0.1 -1.3 90 -2 -2 тепло 1012.1 982.0
ЮЗ 6 20 км слаб. снег 10/9 600 м
[Sc]
+2.1 -2.1 74 -4 -4 по сезону 1011.7 981.8
ЮЗ 6 30 км в посл. час снег 10/9 600 м
[Sc]
+1.4 -1.2 83 -5 -5 по сезону 1011.8 981.8
ЮЗ 2 7000 м слаб. снег 10/9 600 м
[Sc]
+0.7 -0.9 89 -3 -3 тепло 1011.8 981.8
ЮЗ 2 6000 м слаб. снег 10/9 240 м
[Sc]
+0.2 -0.5 95 -4 -4 по сезону 1011.8 981.7 0.5
Ю 2 3500 м слаб. снег 10/9 600 м
[Sc]
+0.1 -0.5 96 -4 -4 тепло 1012.0 981.9
ЮЗ 2 3100 м слаб. снег 10/10 300 м
[Sc]
-0.1 -0.5 97 -4 -4 тепло 1011.8 981.7
Ю 2 6000 м слаб. снег 10/10 480 м
[Sc]
+0.2 -0.1 98 -4 -4 по сезону 1011.9 981.8
ЮЗ 2 5000 м слаб. снег 10/10 480 м
[Sc]
+0.4 +0.1 98 -3 -3 тепло 1011.9 981.8
Ю 3 8000 м слаб. дождь со снегом 10/10 600 м
[Sc]
+1.1 +0.7 97 -4 -4 тепло 1011.9 981.9
Ю 2 10 км в посл. час дождь со снегом 10/10 480 м
[Sc]
+1.1 +0.4 95 -3 -3 по сезону 1012.1 982.1 -0.4 +2.1 1 1.7 15
Ю 1 15 км 10/10 450 м
[Sc]
+1.4 +0.7 95 -1 -1 тепло 1012.6 982.6
Ю 2 10 км 10/10 600 м
[Sc]
+2.2 +1.0 92 -1 -1 тепло 1013.0 983.1
ЮЗ 2 10 км 8/6 600 м
[Sc Ac trans Ci fib]
+2.8 +1.2 89 -0 0 тепло 1013.3 983.4
Ю 3 10 км 9/5 600 м
[Sc Ac trans]
+4.1 +1.6 84 0 +1 тепло 1013.0 983.3
ЮЗ 3 20 км 9/0
[Ac und]
+3.7 +1.4 85 -0 +1 тепло 1012.5 982.8
ЮЗ 1 20 км 8/0
[Ac trans Ci fib]
+4.7 +1.5 80 +3 +5 тепло 1011.8 982.2
Ю 3 25 км 6/0
[Ac trans Ci fib]
+7.2 +1.7 68 +5 +5 тепло 1011.1 981.8
ЮЗ 4 40 км 9/0
[Ac trans Ci sp]
+5.8 +0.7 70 +2 +2 тепло 1011.4 981.9
ЮЗ 3 40 км 8/0
[Ac trans Ci sp]
+5.1 +0.7 73 +2 +2 тепло 1011.5 981.9
Ю 2 30 км 9/0
[Ac trans Ci sp]
+4.8 +0.6 74 +2 +2 тепло 1011.7 982.1
С 1 10 км 8/0
[Ac trans Ci sp]
+2.3 0.0 85 +1 +1 тепло 1012.0 982.1
СЗ 1 10 км 8/0
[Cs]
+1.5 -0.3 88 -0 -0 тепло 1012.0 982.0 +1.0 +7.3
СВ 2 10 км 9/0
[Cs]
+0.1 -1.0 92 -4 -4 по сезону 1012.1 982.0
СВ 1 8000 м дымка 9/0
[Cs]
-0.8 -1.6 94 -3 -3 тепло 1011.8 981.6
СВ 2 6000 м дымка 6/0
[Cs]
-0.8 -1.2 97 -5 -5 по сезону 1011.6 981.4
С 2 1200 м дымка 4/0
[Ci sp]
-1.7 -2.1 97 -6 -6 по сезону 1011.5 981.2
СВ 2 1000 м дымка 4/0
[Ci sp]
-3.0 -3.4 97 -7 -7 тепло 1011.0 980.6
СВ 1 1200 м дымка 1/0
[Ci sp]
-4.0 -4.3 98 -7 -7 по сезону 1010.9 980.4
СВ 2 2000 м дымка ясно -3.8 -4.1 98 -8 -8 по сезону 1010.4 979.9
СВ 3 3000 м дымка ясно -4.8 -5.1 98 -10 -10 тепло 1010.2 979.6
СВ 2 5000 м дымка ясно -5.4 -5.9 96 -10 -10 по сезону 1010.2 979.5
СВ 1 5000 м дымка ясно -5.8 -6.3 96 -8 -8 по сезону 1010.3 979.6
СВ 2 5000 м дымка 1/0
[Ci sp]
-6.4 -7.1 95 -11 -11 тепло 1010.1 979.3
СВ 2 6000 м дымка 1/0
[Ci sp]
-6.5 -7.2 95 -11 -11 прохладно 1010.2 979.4 -6.7 +1.7 12
С 1 4000 м дымка 6/0
[Ci sp]
-6.5 -7.2 95 -9 -9 по сезону 1010.4 979.6
СВ 1 5000 м дымка 6/0
[Ci sp]
-4.8 -5.3 96 -7 -6 тепло 1010.0 979.4
В 2 5000 м дымка 8/0
[Ci sp]
-2.3 -3.0 95 -6 -5 по сезону 1009.6 979.3
В 1 6000 м дымка 8/0
[Ci sp]
+1.2 -0.6 88 -1 +2 тепло 1009.0 979.1
В 1 8000 м дымка 8/0
[Ci sp]
+4.7 +0.5 74 +4 +6 тепло 1008.1 978.6
ЮЗ 1 7000 м мгла 8/0
[Ci sp]
+4.6 -0.4 70 +4 +6 тепло 1007.7 978.2
В 2 15 км 6/0
[Ci sp]
+6.4 +0.7 67 +4 +5 тепло 1007.1 977.8
З 1 15 км 6/0
[Ci sp]
+7.0 +0.4 63 +6 +7 тепло 1007.6 978.3
штиль 0 10 км 6/0
[Ci sp]
+4.6 -0.2 71 +4 +4 тепло 1007.8 978.3
З 1 10 км 5/0
[Ci sp]
+2.0 -0.6 83 0 0 тепло 1008.3 978.5
штиль 0 7000 м дымка 3/0
[Ci sp]
+0.5 -1.7 85 -1 -1 тепло 1008.5 978.5
штиль 0 7000 м дымка 3/0
[Ci sp]
-1.0 -2.1 92 -2 -2 по сезону 1008.6 978.5 -7.2 +7.1
В 1 6000 м дымка 3/0
[Ci sp]
-1.6 -2.9 91 -4 -4 тепло 1008.7 978.5
штиль 0 6000 м дымка 4/0
[Ci sp]
-2.6 -3.6 93 -4 -4 тепло 1008.4 978.1
СВ 2 4000 м дымка 5/0
[Ci sp]
-2.6 -3.2 96 -7 -7 по сезону 1008.4 978.1
С 1 3500 м местами туман поземный 5/0
[Ci sp]
-3.7 -4.2 96 -6 -6 тепло 1008.6 978.2
СВ 1 3500 м дымка 5/0
[Ci sp]
-3.9 -4.4 96 -6 -6 тепло 1008.1 977.7
СВ 2 3500 м дымка 6/0
[Ac trans Ci sp]
-4.8 -5.3 96 -9 -9 по сезону 1007.3 976.8
штиль 0 3200 м дымка 5/0
[Ac trans Ci sp]
-5.2 -5.7 96 -6 -6 тепло 1006.5 976.0
СВ 3 3500 м дымка 5/0
[Ac trans Ci sp]
-4.9 -5.4 96 -11 -11 тепло 1005.8 975.3
СВ 3 3500 м дымка 9/0
[Ac und]
-3.5 -4.2 95 -9 -9 по сезону 1004.6 974.3
СВ 2 3500 м дымка 9/0
[Ac trans]
-2.3 -2.9 96 -6 -6 тепло 1004.0 973.9
штиль 0 10 км дымка 9/3 1500 м
[Sc Ac trans]
-1.2 -2.0 94 -3 -3 тепло 1003.5 973.5
СВ 2 10 км 9/5 1000 м
[Sc Ac trans]
-1.2 -2.0 94 -5 -5 по сезону 1002.7 972.7 -5.3 -0.6 9
С 1 15 км 9/3 1000 м
[Sc Ac As]
+2.6 +1.3 91 +1 +1 тепло 1002.3 972.7
Ю 3 20 км 9/0
[Ac As]
+5.7 +2.0 77 +3 +3 тепло 1001.5 972.3
ЮЗ 3 30 км 9/0
[Ac trans Cs]
+8.4 +2.8 68 +6 +7 тепло 1001.4 972.5
ЮЗ 1 40 км 9/0
[Ac lent Cs]
+9.9 +3.2 63 +10 +12 тепло 1001.5 972.7
Ю 4 40 км 9/0
[Ac und]
+10.0 +3.0 62 +8 +8 тепло 1001.1 972.3
Ю 5 40 км 9/0
[Ac As]
+9.9 +3.0 62 +7 +7 тепло 1000.6 971.8
Ю 6 40 км 9/6 1500 м
[Sc Ac As]
+9.8 +3.1 63 +7 +7 тепло 1000.7 971.9
ЮЗ 3 30 км слаб. дождь 9/9 1500 м
[Sc]
+8.3 +3.7 73 +6 +6 тепло 1001.4 972.5
З 1 10 км слаб. дождь 9/9 1000 м
[Sc]
+6.7 +2.9 77 +6 +6 тепло 1002.0 972.9
штиль 0 6000 м слаб. дождь 9/9 1000 м
[Sc]
+4.8 +3.1 89 +4 +4 тепло 1002.4 973.1
штиль 0 5000 м слаб. дождь 10/9 1000 м
[Sc]
+4.0 +3.0 93 +3 +3 тепло 1002.6 973.2
З 2 7000 м в посл. час дождь 9/5 1000 м
[Sc Ac As]
+4.6 +3.3 91 +2 +2 тепло 1002.0 972.7 -1.2 +10.2 0.5
ЮЗ 2 7000 м дымка 4/0
[Ac trans]
+3.3 +2.1 92 0 0 тепло 1002.4 972.9
СВ 2 5000 м дымка 5/0
[Ac und]
+1.9 +1.3 96 -2 -2 тепло 1002.3 972.7
С 1 4000 м дымка 3/0
[Ac trans]
+1.0 +0.6 97 -1 -1 тепло 1002.2 972.5
С 3 4000 м дымка 3/0
[Ci sp]
+0.2 -0.1 98 -5 -5 тепло 1002.1 972.3
С 2 4000 м дымка 8/0
[Ac und Ci sp]
-0.1 -0.2 99 -4 -4 тепло 1001.8 972.0
С 2 4000 м дымка 6/0
[Ac trans Ci sp]
-0.4 -0.5 99 -4 -4 по сезону 1002.0 972.1
СВ 3 5000 м дымка 8/3 1000 м
[Sc Ac trans Ci sp]
+0.2 +0.1 99 -5 -5 тепло 1001.7 971.9
С 2 8000 м дымка 8/3 1000 м
[Sc Ac trans Cs]
+0.9 +0.6 98 -3 -3 тепло 1001.0 971.3
СВ 4 8000 м дымка 8/0
[Ac trans Cs]
+1.0 +0.7 98 -4 -4 по сезону 1000.4 970.7
СВ 4 10 км 8/0
[Ac und]
+2.7 +1.8 94 -2 -2 тепло 999.8 970.3
СВ 3 20 км 8/0
[Ac trans]
+4.2 +2.4 88 0 0 тепло 999.4 970.1
С 4 20 км 9/0
[Ac trans Cs]
+4.0 +2.3 89 -1 -1 тепло 999.1 969.8 -0.7 +4.6 0.5 6
СВ 3 15 км 9/0
[Ac und Cs]
+3.3 +2.0 91 -1 -1 тепло 999.3 969.9
СВ 3 20 км 9/0
[Ac As]
+3.5 +1.9 89 -0 -0 тепло 999.0 969.6
С 3 15 км 9/0
[Ac As]
+4.5 +2.7 88 +1 +1 тепло 998.1 968.9
С 2 15 км 9/1 2000 м
[Sc Ac As]
+4.4 +2.6 88 +2 +3 тепло 998.5 969.2
ЮВ 2 2000 м 9/4 2000 м
[Sc Ac As]
+5.4 +2.4 81 +3 +4 тепло 998.1 969.0
Местоположение метеостанции Краков (Польша): широта 50.08 долгота 19.80 высота над уровнем моря 237 м.
В архиве по умолчанию представлена погода в Кракове за последнюю неделю. Архивные данные за месяц целиком и за предыдущие месяцы, начиная с января 2011 года, Вы можете получить, выбрав интересующий диапазон дат из раскрывающегося списка и нажав кнопку "Найти!".
*Определитесь, кто Вы:
Внимание! Время в таблицах - всемирное. Для получения местного времени необходимо прибавить поправку, которая равна 1 ч.
Смотрите также архив погоды в соседних городах и на ближайших метеорологических станциях:
Партнеры нашего сайта:      
Пояснения к столбцам:
  • Ветер - указаны скорость ветра в м/с - средняя за 10 мин, порывы в срок и между сроками (в фигурных скобках) и направление, откуда дует ветер: С - северный,
  • СВ - северо-восточный, В - восточный, ЮВ - юго-восточный, Ю - южный, ЮЗ - юго-западный, З - западный, СЗ - северо-западный.
  • Видимость - горизонтальная дальность видимости в метрах или километрах. При видимости от 1 до 10 км при отсутствии осадков обычно наблюдается дымка, при ухудшении видимости до 1 км и менее - туман. В сухую погоду видимость может ухудшаться дымом, пылью или мглою.
  • Явления - указаны атмосферные явления, наблюдавшиеся в срок или в последний час перед сроком; фигурными скобками обозначены явления, наблюдавшиеся между сроками (за 1-3 часа до срока); квадратными скобками обозначены град или гололедные отложения с указанием их диаметра в мм.
  • Облачность - указаны через наклонную черту общая и нижняя облачность в баллах и высота нижней границы облаков в метрах; квадратными скобками обозначены формы облаков: Ci - перистые, Cs - перисто-слоистые, Cc - перисто-кучевые, Ac - высококучевые, As - высокослоистые, Sc - слоисто-кучевые, Ns - слоисто-дождевые, Cu - кучевые, Cb - кучево-дождевые. Подробнее классификацию облаков см. в Атласе облаков (PDF).
  • T - Температура воздуха - температура, измеренная на высоте 2 м над землей.
  • Td - Температура точки росы - температура, при понижении до которой содержащийся в воздухе водяной пар достигнет насыщения.
  • f - Относительная влажность воздуха - влажноcть воздуха, измеренная на высоте 2 м над землей.
  • Te - Эффективная температура - температура, которую ощущает одетый по сезону человек в тени. Характеристика душности погоды. При расчете учитывается влияние влажности воздуха и скорости ветра на теплоощущения человека.
  • Tes - Эффективная температура на солнце - температура, которую ощущает человек, с поправкой на солнечный нагрев. Характеристика знойности погоды. Зависит от высоты солнца над горизонтом, облачности и скорости ветра. Ночью, в пасмурную погоду, а также при ветре 12 м/с и более поправка равна нулю.
  • P - Атмосферное давление - приведенное к уровню моря атмосферное давление.
  • Po - Атмосферное давление - измеренное на уровне метеостанции атмосферное давление.
  • Tmin - Минимальная температура - минимум температуры воздуха на высоте 2 м над землей.
  • Tmax - Максимальная температура - максимум температуры воздуха на высоте 2 м над землей.
  • R - Количество осадков - Количество выпавших осадков за период времени, мм. При наведении курсора мыши на число - период времени, за который выпало указанное количество осадков.
  • R24 - Количество осадков - Количество выпавших осадков за 24 часа, мм.
  • S - Снежный покров - Высота снежного покрова, см. При наведении курсора мыши на число - состояние снежного покрова и степень покрытия местности в баллах.